Time,TemperatureF,DewpointF,PressureIn,WindDirection,WindDirectionDegrees,WindSpeedMPH,WindSpeedGustMPH,Humidity,HourlyPrecipIn,Conditions,Clouds,dailyrainin,SoftwareType,DateUTC
2013-03-30 00:00:00,67.5,41.7,17.72,SSE,149,4.0,4.0,39,0.00,,-RA,0.00,VWS V13.01,2013-03-30 05:00:00,
2013-03-30 00:05:00,67.3,41.5,17.72,SE,142,0.0,4.0,39,0.00,,-RA,0.00,VWS V13.01,2013-03-30 05:05:00,
2013-03-30 00:10:00,67.3,41.5,17.72,NE,54,6.7,6.7,39,0.00,,-RA,0.00,VWS V13.01,2013-03-30 05:10:00,
2013-03-30 00:15:00,67.1,41.3,17.72,ESE,120,4.9,4.9,39,0.00,,-RA,0.00,VWS V13.01,2013-03-30 05:15:00,
2013-03-30 00:20:00,67.1,41.3,17.72,SSE,153,6.3,6.3,39,0.00,,-RA,0.00,VWS V13.01,2013-03-30 05:20:00,
2013-03-30 00:25:00,67.3,41.5,17.72,SSW,197,2.7,2.7,39,0.00,,-RA,0.00,VWS V13.01,2013-03-30 05:25:00,
2013-03-30 00:30:00,67.3,41.5,17.72,SE,143,5.8,5.8,39,0.00,,-RA,0.00,VWS V13.01,2013-03-30 05:30:00,
2013-03-30 00:35:00,67.3,41.5,17.72,South,175,5.4,5.4,39,0.00,,-RA,0.00,VWS V13.01,2013-03-30 05:35:00,
2013-03-30 00:40:00,67.3,41.5,17.72,South,171,3.1,3.1,39,0.00,,-RA,0.00,VWS V13.01,2013-03-30 05:40:00,
2013-03-30 00:45:00,67.1,41.3,17.72,SE,143,0.0,0.0,39,0.00,,-RA,0.00,VWS V13.01,2013-03-30 05:45:00,
2013-03-30 00:50:00,67.1,41.3,17.72,ESE,116,0.0,0.0,39,0.00,,OVC250,0.00,VWS V13.01,2013-03-30 05:50:00,
2013-03-30 00:55:00,67.1,41.3,17.72,South,181,0.0,0.0,39,0.00,,OVC250,0.00,VWS V13.01,2013-03-30 05:55:00,
2013-03-30 01:00:00,67.1,41.3,17.72,SSE,152,2.2,2.2,39,0.00,,OVC250,0.00,VWS V13.01,2013-03-30 06:00:00,
2013-03-30 01:05:00,67.1,42.0,17.72,South,189,3.6,3.6,40,0.00,,OVC250,0.00,VWS V13.01,2013-03-30 06:05:00,
2013-03-30 01:10:00,67.1,42.0,17.72,SSW,206,4.0,4.0,40,0.00,,OVC250,0.00,VWS V13.01,2013-03-30 06:10:00,
2013-03-30 01:15:00,66.9,41.8,17.72,SSW,206,4.0,4.0,40,0.00,,OVC250,0.00,VWS V13.01,2013-03-30 06:15:00,
2013-03-30 01:20:00,66.9,42.5,17.72,SSW,206,4.0,4.0,41,0.00,,OVC250,0.00,VWS V13.01,2013-03-30 06:20:00,
2013-03-30 01:25:00,66.9,42.5,17.72,South,180,3.6,3.6,41,0.00,,OVC250,0.00,VWS V13.01,2013-03-30 06:25:00,
2013-03-30 01:30:00,66.7,42.9,17.72,SSW,213,2.7,2.7,42,0.00,,OVC250,0.00,VWS V13.01,2013-03-30 06:30:00,
2013-03-30 01:35:00,66.7,42.9,17.72,South,181,6.3,8.3,42,0.00,,OVC250,0.00,VWS V13.01,2013-03-30 06:35:00,
2013-03-30 01:40:00,66.7,42.9,17.72,SE,141,2.7,2.7,42,0.00,,OVC250,0.00,VWS V13.01,2013-03-30 06:40:00,
2013-03-30 01:45:00,66.7,43.5,17.72,South,179,2.7,2.7,43,0.00,,OVC120,0.00,VWS V13.01,2013-03-30 06:45:00,
2013-03-30 01:50:00,66.6,43.4,17.72,SSE,153,3.1,3.1,43,0.00,,OVC120,0.00,VWS V13.01,2013-03-30 06:50:00,
2013-03-30 01:55:00,66.6,43.4,17.72,SSW,198,2.7,2.7,43,0.00,,OVC120,0.00,VWS V13.01,2013-03-30 06:55:00,
2013-03-30 02:00:00,66.6,43.4,17.72,South,175,0.0,0.0,43,0.00,,OVC120,0.00,VWS V13.01,2013-03-30 07:00:00,
2013-03-30 02:05:00,66.6,43.4,17.72,SE,144,3.6,3.6,43,0.00,,OVC120,0.00,VWS V13.01,2013-03-30 07:05:00,
2013-03-30 02:10:00,66.6,43.4,17.72,SW,216,2.7,2.7,43,0.00,,OVC120,0.00,VWS V13.01,2013-03-30 07:10:00,
2013-03-30 02:15:00,66.6,44.0,17.72,WSW,251,2.7,2.7,44,0.00,,OVC120,0.00,VWS V13.01,2013-03-30 07:15:00,
2013-03-30 02:20:00,65.3,42.2,17.72,North,0,5.4,5.4,43,0.00,,OVC120,0.00,VWS V13.01,2013-03-30 07:20:00,
2013-03-30 02:25:00,65.3,42.2,17.72,North,0,5.4,5.4,43,0.08,,OVC120,0.08,VWS V13.01,2013-03-30 07:25:00,
2013-03-30 02:30:00,61.5,43.2,17.72,NW,312,4.0,4.0,51,0.12,,OVC120,0.12,VWS V13.01,2013-03-30 07:30:00,
2013-03-30 02:35:00,60.4,46.1,17.72,WSW,254,6.3,6.3,59,0.31,,OVC120,0.31,VWS V13.01,2013-03-30 07:35:00,
2013-03-30 02:40:00,59.7,47.1,17.72,NW,326,8.1,8.1,63,0.31,,OVC120,0.31,VWS V13.01,2013-03-30 07:40:00,
2013-03-30 02:45:00,59.4,48.0,17.72,NW,318,7.6,7.6,66,0.43,,,0.43,VWS V13.01,2013-03-30 07:45:00,
2013-03-30 02:50:00,59.2,48.6,17.72,WSW,247,8.3,8.3,68,0.43,,,0.43,VWS V13.01,2013-03-30 07:50:00,
2013-03-30 02:55:00,59.4,49.6,17.72,WNW,283,5.4,5.4,70,0.47,,,0.47,VWS V13.01,2013-03-30 07:55:00,
2013-03-30 03:00:00,59.4,49.6,17.72,WNW,283,5.4,5.4,70,0.47,,,0.59,VWS V13.01,2013-03-30 08:00:00,
2013-03-30 03:05:00,59.2,49.0,17.72,South,173,0.0,0.0,69,0.59,,,0.59,VWS V13.01,2013-03-30 08:05:00,
2013-03-30 03:10:00,59.2,49.0,17.72,East,80,0.0,0.0,69,0.59,,,0.59,VWS V13.01,2013-03-30 08:10:00,
2013-03-30 03:15:00,59.0,48.9,17.72,ENE,78,0.0,0.0,69,0.67,,,0.67,VWS V13.01,2013-03-30 08:15:00,
2013-03-30 03:20:00,59.0,48.9,17.72,South,185,0.0,0.0,69,0.71,,,0.71,VWS V13.01,2013-03-30 08:20:00,
2013-03-30 03:25:00,58.8,49.1,17.72,SSE,158,3.1,3.1,70,0.71,,,0.71,VWS V13.01,2013-03-30 08:25:00,
2013-03-30 03:30:00,58.8,49.1,17.72,South,191,0.0,0.0,70,0.59,,,0.71,VWS V13.01,2013-03-30 08:30:00,
2013-03-30 03:35:00,58.8,49.1,17.72,South,169,0.0,0.0,70,0.47,,,0.71,VWS V13.01,2013-03-30 08:35:00,
2013-03-30 03:40:00,58.8,49.1,17.72,South,173,0.0,0.0,70,0.39,,,0.71,VWS V13.01,2013-03-30 08:40:00,
2013-03-30 03:45:00,58.5,48.7,17.72,SSE,156,0.0,0.0,70,0.39,,-RA,0.71,VWS V13.01,2013-03-30 08:45:00,
2013-03-30 03:50:00,58.1,48.4,17.72,WSW,253,0.0,0.0,70,0.28,,-RA,0.71,VWS V13.01,2013-03-30 08:50:00,
2013-03-30 03:55:00,57.9,48.6,17.72,SSW,197,0.0,0.0,71,0.24,,-RA,0.71,VWS V13.01,2013-03-30 08:55:00,
2013-03-30 04:00:00,57.9,48.6,17.72,South,186,0.0,0.0,71,0.24,,-RA,0.71,VWS V13.01,2013-03-30 09:00:00,
2013-03-30 04:05:00,57.9,48.6,17.72,South,177,0.0,0.0,71,0.12,,-RA,0.75,VWS V13.01,2013-03-30 09:05:00,
2013-03-30 04:10:00,57.7,48.4,17.72,SSE,159,3.6,3.6,71,0.16,,-RA,0.75,VWS V13.01,2013-03-30 09:10:00,
2013-03-30 04:15:00,57.7,48.4,17.72,SSE,148,2.7,2.7,71,0.08,,-RA,0.75,VWS V13.01,2013-03-30 09:15:00,
2013-03-30 04:20:00,57.7,48.4,17.72,ESE,102,2.7,2.7,71,0.04,,-RA,0.75,VWS V13.01,2013-03-30 09:20:00,
2013-03-30 04:25:00,57.7,48.4,17.72,SSW,200,0.0,0.0,71,0.04,,-RA,0.75,VWS V13.01,2013-03-30 09:25:00,
2013-03-30 04:30:00,57.7,48.4,17.72,SW,235,0.0,0.0,71,0.04,,-RA,0.75,VWS V13.01,2013-03-30 09:30:00,
2013-03-30 04:34:00,57.7,48.4,17.72,SW,234,0.0,0.0,71,0.04,,-RA,0.75,VWS V13.01,2013-03-30 09:34:00,
2013-03-30 04:39:00,57.6,48.2,17.72,SW,235,0.0,0.0,71,0.04,,-RA,0.75,VWS V13.01,2013-03-30 09:39:00,
2013-03-30 04:44:00,57.6,48.2,17.72,SW,234,0.0,0.0,71,0.04,,-RA,0.75,VWS V13.01,2013-03-30 09:44:00,
2013-03-30 04:49:00,57.4,48.1,17.72,SW,235,0.0,0.0,71,0.04,,-RA,0.75,VWS V13.01,2013-03-30 09:49:00,
2013-03-30 04:54:00,57.4,48.1,17.72,SW,235,0.0,0.0,71,0.04,,-RA,0.75,VWS V13.01,2013-03-30 09:54:00,
2013-03-30 04:59:00,57.4,48.1,17.72,SW,221,0.0,0.0,71,0.04,,-RA,0.75,VWS V13.01,2013-03-30 09:59:00,
2013-03-30 05:04:00,57.2,47.9,17.72,SW,222,0.0,0.0,71,0.04,,-RA,0.75,VWS V13.01,2013-03-30 10:04:00,
2013-03-30 05:09:00,57.2,47.9,17.72,SW,221,0.0,0.0,71,0.00,,-RA,0.75,VWS V13.01,2013-03-30 10:09:00,
2013-03-30 05:14:00,57.2,47.9,17.72,SW,221,0.0,0.0,71,0.00,,-RA,0.75,VWS V13.01,2013-03-30 10:14:00,
2013-03-30 05:19:00,57.2,47.9,17.72,SW,221,0.0,0.0,71,0.00,,-RA,0.75,VWS V13.01,2013-03-30 10:19:00,
2013-03-30 05:24:00,57.2,47.9,17.72,SW,221,0.0,0.0,71,0.00,,-RA,0.75,VWS V13.01,2013-03-30 10:24:00,
2013-03-30 05:29:00,57.0,48.1,17.72,SW,221,0.0,0.0,72,0.00,,-RA,0.75,VWS V13.01,2013-03-30 10:29:00,
2013-03-30 05:34:00,57.0,48.1,17.72,SW,221,0.0,0.0,72,0.00,,-RA,0.75,VWS V13.01,2013-03-30 10:34:00,
2013-03-30 05:39:00,56.8,47.9,17.72,SW,221,0.0,0.0,72,0.00,,-RA,0.75,VWS V13.01,2013-03-30 10:39:00,
2013-03-30 05:44:00,56.8,47.9,17.72,SW,220,0.0,0.0,72,0.00,,OVC200,0.75,VWS V13.01,2013-03-30 10:44:00,
2013-03-30 05:49:00,56.8,47.9,17.72,SW,221,0.0,0.0,72,0.00,,OVC200,0.75,VWS V13.01,2013-03-30 10:49:00,
2013-03-30 05:54:00,56.8,47.9,17.72,SW,223,0.0,0.0,72,0.00,,OVC200,0.75,VWS V13.01,2013-03-30 10:54:00,
2013-03-30 05:59:00,56.8,47.9,17.72,SW,222,0.0,0.0,72,0.00,,OVC200,0.75,VWS V13.01,2013-03-30 10:59:00,
2013-03-30 06:04:00,56.8,47.9,17.72,SW,222,0.0,0.0,72,0.00,,OVC200,0.75,VWS V13.01,2013-03-30 11:04:00,
2013-03-30 06:09:00,56.8,47.9,17.72,SW,221,0.0,0.0,72,0.00,,OVC200,0.75,VWS V13.01,2013-03-30 11:09:00,
2013-03-30 06:14:00,56.8,47.9,17.72,SW,222,0.0,0.0,72,0.00,,OVC200,0.75,VWS V13.01,2013-03-30 11:14:00,
2013-03-30 06:19:00,56.7,47.8,17.72,SW,222,0.0,0.0,72,0.00,,OVC200,0.75,VWS V13.01,2013-03-30 11:19:00,
2013-03-30 06:24:00,56.7,48.1,17.72,SW,222,0.0,0.0,73,0.00,,OVC200,0.75,VWS V13.01,2013-03-30 11:24:00,
2013-03-30 06:29:00,56.7,48.1,17.72,SE,141,0.0,0.0,73,0.00,,OVC200,0.75,VWS V13.01,2013-03-30 11:29:00,
2013-03-30 06:34:00,56.7,48.1,17.72,SE,138,0.0,0.0,73,0.00,,OVC200,0.75,VWS V13.01,2013-03-30 11:34:00,
2013-03-30 06:39:00,56.7,48.1,17.72,SE,139,0.0,0.0,73,0.00,,OVC200,0.75,VWS V13.01,2013-03-30 11:39:00,
2013-03-30 06:44:00,56.7,48.1,17.72,SE,130,0.0,0.0,73,0.00,,OVC200,0.75,VWS V13.01,2013-03-30 11:44:00,
2013-03-30 06:49:00,56.7,48.1,17.72,SE,130,0.0,0.0,73,0.00,,SCT200,0.75,VWS V13.01,2013-03-30 11:49:00,
2013-03-30 06:54:00,56.7,48.1,17.72,SE,124,0.0,0.0,73,0.00,,SCT200,0.75,VWS V13.01,2013-03-30 11:54:00,
2013-03-30 06:59:00,56.7,48.1,17.72,SE,130,0.0,0.0,73,0.00,,SCT200,0.75,VWS V13.01,2013-03-30 11:59:00,
2013-03-30 07:04:00,56.7,48.1,17.72,ESE,115,0.0,0.0,73,0.00,,SCT200,0.75,VWS V13.01,2013-03-30 12:04:00,
2013-03-30 07:09:00,56.7,48.1,17.72,ESE,113,0.0,0.0,73,0.00,,SCT200,0.75,VWS V13.01,2013-03-30 12:09:00,
2013-03-30 07:14:00,56.5,47.9,17.72,ESE,110,0.0,0.0,73,0.00,,SCT200,0.75,VWS V13.01,2013-03-30 12:14:00,
2013-03-30 07:19:00,56.5,47.9,17.72,ESE,110,0.0,0.0,73,0.00,,SCT200,0.75,VWS V13.01,2013-03-30 12:19:00,
2013-03-30 07:24:00,56.3,47.8,17.72,ESE,111,0.0,0.0,73,0.00,,SCT200,0.75,VWS V13.01,2013-03-30 12:24:00,
2013-03-30 07:29:00,56.3,47.8,17.72,ESE,111,0.0,0.0,73,0.00,,SCT200,0.75,VWS V13.01,2013-03-30 12:29:00,
2013-03-30 07:34:00,56.1,47.6,17.72,ESE,112,0.0,0.0,73,0.00,,SCT200,0.75,VWS V13.01,2013-03-30 12:34:00,
2013-03-30 07:39:00,56.1,47.6,17.72,ESE,111,0.0,0.0,73,0.00,,SCT200,0.75,VWS V13.01,2013-03-30 12:39:00,
2013-03-30 07:44:00,56.1,47.6,17.72,ESE,110,0.0,0.0,73,0.00,,SCT200,0.75,VWS V13.01,2013-03-30 12:44:00,
2013-03-30 07:49:00,56.3,48.1,17.72,ESE,110,0.0,0.0,74,0.00,,SCT200,0.75,VWS V13.01,2013-03-30 12:49:00,
2013-03-30 07:54:00,56.5,48.3,17.72,ENE,72,0.0,0.0,74,0.00,,SCT200,0.75,VWS V13.01,2013-03-30 12:54:00,
2013-03-30 07:59:00,56.5,48.3,17.72,East,84,0.0,0.0,74,0.00,,SCT200,0.75,VWS V13.01,2013-03-30 12:59:00,
2013-03-30 08:04:00,56.5,48.3,17.72,ESE,106,0.0,0.0,74,0.00,,SCT200,0.75,VWS V13.01,2013-03-30 13:04:00,
2013-03-30 08:09:00,56.7,48.5,17.72,SE,127,0.0,0.0,74,0.00,,SCT200,0.75,VWS V13.01,2013-03-30 13:09:00,
2013-03-30 08:14:00,56.8,48.7,17.72,SE,144,0.0,0.0,74,0.00,,SCT200,0.75,VWS V13.01,2013-03-30 13:14:00,
2013-03-30 08:19:00,57.0,48.8,17.72,ESE,117,0.0,0.0,74,0.00,,SCT200,0.75,VWS V13.01,2013-03-30 13:19:00,
2013-03-30 08:24:00,57.2,49.0,17.72,East,91,0.0,0.0,74,0.00,,SCT200,0.75,VWS V13.01,2013-03-30 13:24:00,
2013-03-30 08:29:00,57.2,49.0,17.72,SE,124,0.0,0.0,74,0.00,,SCT200,0.75,VWS V13.01,2013-03-30 13:29:00,
2013-03-30 08:34:00,57.6,49.3,17.72,SSE,147,2.2,2.2,74,0.00,,SCT200,0.75,VWS V13.01,2013-03-30 13:34:00,
2013-03-30 08:39:00,57.6,49.3,17.72,East,92,0.0,0.0,74,0.00,,SCT200,0.75,VWS V13.01,2013-03-30 13:39:00,
2013-03-30 08:44:00,58.5,50.2,17.72,ESE,109,0.0,0.0,74,0.00,,BKN100,0.75,VWS V13.01,2013-03-30 13:44:00,
2013-03-30 08:49:00,59.2,50.9,17.72,ESE,111,0.0,0.0,74,0.00,,BKN100,0.75,VWS V13.01,2013-03-30 13:49:00,
2013-03-30 08:54:00,59.2,50.9,17.72,SE,141,0.0,0.0,74,0.00,,BKN100,0.75,VWS V13.01,2013-03-30 13:54:00,
2013-03-30 08:59:00,59.9,52.0,17.72,ESE,119,0.0,0.0,75,0.00,,BKN100,0.75,VWS V13.01,2013-03-30 13:59:00,
2013-03-30 09:04:00,59.9,52.0,17.72,South,183,0.0,0.0,75,0.00,,BKN100,0.75,VWS V13.01,2013-03-30 14:04:00,
2013-03-30 09:09:00,61.5,53.5,17.72,South,171,2.2,2.2,75,0.00,,BKN100,0.75,VWS V13.01,2013-03-30 14:09:00,
2013-03-30 09:14:00,62.2,54.2,17.72,SSE,153,0.0,0.0,75,0.00,,BKN100,0.75,VWS V13.01,2013-03-30 14:14:00,
2013-03-30 09:19:00,62.2,54.2,17.72,SSE,161,0.0,0.0,75,0.00,,BKN100,0.75,VWS V13.01,2013-03-30 14:19:00,
2013-03-30 09:24:00,63.7,55.2,17.72,SE,133,6.3,6.3,74,0.00,,BKN100,0.75,VWS V13.01,2013-03-30 14:24:00,
2013-03-30 09:29:00,63.7,55.2,17.72,ESE,104,0.0,0.0,74,0.00,,BKN100,0.75,VWS V13.01,2013-03-30 14:29:00,
2013-03-30 09:34:00,63.3,53.4,17.72,ESE,104,0.0,0.0,70,0.00,,BKN100,0.75,VWS V13.01,2013-03-30 14:34:00,
2013-03-30 09:39:00,63.3,53.0,17.72,ESE,112,4.0,4.0,69,0.00,,SCT250,0.75,VWS V13.01,2013-03-30 14:39:00,
2013-03-30 09:44:00,63.3,53.0,17.72,South,170,0.0,0.0,69,0.00,,SCT250,0.75,VWS V13.01,2013-03-30 14:44:00,
2013-03-30 09:49:00,63.3,51.0,17.72,SSE,168,0.0,0.0,64,0.00,,SCT250,0.75,VWS V13.01,2013-03-30 14:49:00,
2013-03-30 09:54:00,63.5,51.1,17.72,SSE,166,0.0,0.0,64,0.00,,SCT250,0.75,VWS V13.01,2013-03-30 14:54:00,
2013-03-30 09:59:00,63.5,50.7,17.72,SSE,151,3.1,3.1,63,0.00,,SCT250,0.75,VWS V13.01,2013-03-30 14:59:00,
2013-03-30 10:04:00,63.5,50.3,17.72,South,173,4.0,4.0,62,0.00,,SCT250,0.75,VWS V13.01,2013-03-30 15:04:00,
2013-03-30 10:09:00,63.5,49.8,17.72,SSE,151,0.0,0.0,61,0.00,,SCT250,0.75,VWS V13.01,2013-03-30 15:09:00,
2013-03-30 10:14:00,63.7,50.0,17.72,SSE,162,0.0,0.0,61,0.00,,SCT250,0.75,VWS V13.01,2013-03-30 15:14:00,
2013-03-30 10:19:00,63.9,50.2,17.72,ESE,120,0.0,0.0,61,0.00,,SCT250,0.75,VWS V13.01,2013-03-30 15:19:00,
2013-03-30 10:24:00,64.2,50.5,17.72,SE,136,0.0,0.0,61,0.00,,SCT250,0.75,VWS V13.01,2013-03-30 15:24:00,
2013-03-30 10:29:00,64.4,50.2,17.72,South,182,0.0,0.0,60,0.00,,SCT250,0.75,VWS V13.01,2013-03-30 15:29:00,
2013-03-30 10:34:00,64.4,49.8,17.72,SE,145,0.0,0.0,59,0.00,,SCT250,0.75,VWS V13.01,2013-03-30 15:34:00,
2013-03-30 10:39:00,64.8,49.7,17.72,South,189,0.0,0.0,58,0.00,,SCT250,0.75,VWS V13.01,2013-03-30 15:39:00,
2013-03-30 10:44:00,64.8,49.7,17.72,SSW,196,3.1,3.1,58,0.00,,SCT250,0.75,VWS V13.01,2013-03-30 15:44:00,
2013-03-30 10:49:00,64.8,49.2,17.72,South,191,0.0,0.0,57,0.00,,SCT250,0.75,VWS V13.01,2013-03-30 15:49:00,
2013-03-30 10:54:00,64.9,49.4,17.72,SSW,195,0.0,0.0,57,0.00,,SCT250,0.75,VWS V13.01,2013-03-30 15:54:00,
2013-03-30 10:59:00,64.9,49.4,17.72,SSE,160,3.6,3.6,57,0.00,,OVC250,0.75,VWS V13.01,2013-03-30 15:59:00,
2013-03-30 11:04:00,64.9,49.4,17.72,SE,137,4.0,4.0,57,0.00,,OVC250,0.75,VWS V13.01,2013-03-30 16:04:00,
2013-03-30 11:09:00,66.0,49.9,17.72,SE,137,4.0,4.0,56,0.00,,OVC250,0.75,VWS V13.01,2013-03-30 16:09:00,
2013-03-30 11:14:00,66.0,49.9,17.72,SE,137,4.0,4.0,56,0.00,,OVC250,0.75,VWS V13.01,2013-03-30 16:14:00,
2013-03-30 11:19:00,67.8,49.6,17.72,SE,137,4.0,4.0,52,0.00,,OVC250,0.75,VWS V13.01,2013-03-30 16:19:00,
2013-03-30 11:24:00,67.8,49.6,17.72,SE,137,4.0,4.0,52,0.00,,OVC250,0.75,VWS V13.01,2013-03-30 16:24:00,
2013-03-30 11:29:00,67.8,49.6,17.72,SE,137,4.0,4.0,52,0.00,,OVC250,0.75,VWS V13.01,2013-03-30 16:29:00,
2013-03-30 11:34:00,67.8,49.6,17.72,SE,137,4.0,4.0,52,0.00,,OVC250,0.75,VWS V13.01,2013-03-30 16:34:00,
2013-03-30 11:39:00,67.8,49.6,17.72,SE,137,4.0,4.0,52,0.00,,OVC250,0.75,VWS V13.01,2013-03-30 16:39:00,
2013-03-30 11:44:00,67.8,49.6,17.72,SE,137,4.0,4.0,52,0.00,,OVC250,0.75,VWS V13.01,2013-03-30 16:44:00,
2013-03-30 11:49:00,67.8,49.6,17.72,SE,137,4.0,4.0,52,0.00,,OVC250,0.75,VWS V13.01,2013-03-30 16:49:00,
2013-03-30 11:54:00,67.8,49.6,17.72,SW,217,5.4,5.4,52,0.00,,OVC250,0.75,VWS V13.01,2013-03-30 16:54:00,
2013-03-30 11:59:00,67.8,49.6,17.72,SW,217,5.4,5.4,52,0.00,,OVC250,0.75,VWS V13.01,2013-03-30 16:59:00,
2013-03-30 12:04:00,67.8,49.6,17.72,SW,217,5.4,5.4,52,0.00,,OVC250,0.75,VWS V13.01,2013-03-30 17:04:00,
2013-03-30 12:09:00,67.8,49.6,17.72,South,170,4.0,4.0,52,0.00,,OVC250,0.75,VWS V13.01,2013-03-30 17:09:00,
2013-03-30 12:14:00,67.8,49.6,17.72,South,170,4.0,4.0,52,0.00,,OVC250,0.75,VWS V13.01,2013-03-30 17:14:00,
2013-03-30 12:19:00,67.8,49.6,17.72,ESE,114,0.0,0.0,52,0.00,,OVC250,0.75,VWS V13.01,2013-03-30 17:19:00,
2013-03-30 12:24:00,67.8,49.6,17.72,SW,229,0.0,0.0,52,0.00,,OVC250,0.75,VWS V13.01,2013-03-30 17:24:00,
2013-03-30 12:29:00,67.8,49.6,17.72,WSW,244,5.4,5.4,52,0.00,,OVC250,0.75,VWS V13.01,2013-03-30 17:29:00,
2013-03-30 12:34:00,67.8,49.6,17.72,SSW,195,8.1,8.1,52,0.00,,OVC250,0.75,VWS V13.01,2013-03-30 17:34:00,
2013-03-30 12:39:00,67.8,49.6,17.72,SSW,212,7.6,7.6,52,0.00,,OVC250,0.75,VWS V13.01,2013-03-30 17:39:00,
2013-03-30 12:44:00,67.8,49.6,17.72,SSW,212,7.6,7.6,52,0.00,,OVC250,0.75,VWS V13.01,2013-03-30 17:44:00,
2013-03-30 12:49:00,67.8,49.6,17.72,SSW,212,7.6,7.6,52,0.00,,OVC250,0.75,VWS V13.01,2013-03-30 17:49:00,
2013-03-30 12:54:00,67.8,49.6,17.72,SE,127,0.0,0.0,52,0.00,,OVC250,0.75,VWS V13.01,2013-03-30 17:54:00,
2013-03-30 12:59:00,67.8,49.6,17.72,SE,127,0.0,0.0,52,0.00,,OVC250,0.75,VWS V13.01,2013-03-30 17:59:00,
2013-03-30 13:04:00,67.8,49.6,17.72,SE,127,0.0,0.0,52,0.00,,OVC250,0.75,VWS V13.01,2013-03-30 18:04:00,
2013-03-30 13:09:00,67.8,49.6,17.72,SE,127,0.0,0.0,52,0.00,,OVC250,0.75,VWS V13.01,2013-03-30 18:09:00,
2013-03-30 13:14:00,67.8,49.6,17.72,SE,127,0.0,0.0,52,0.00,,OVC250,0.75,VWS V13.01,2013-03-30 18:14:00,
2013-03-30 13:19:00,67.8,49.6,17.72,SE,127,0.0,0.0,52,0.00,,OVC250,0.75,VWS V13.01,2013-03-30 18:19:00,
2013-03-30 13:24:00,67.8,49.6,17.72,SE,127,0.0,0.0,52,0.00,,OVC250,0.75,VWS V13.01,2013-03-30 18:24:00,
2013-03-30 13:29:00,67.8,49.6,17.72,South,180,5.4,5.4,52,0.00,,OVC250,0.75,VWS V13.01,2013-03-30 18:29:00,
2013-03-30 13:34:00,76.8,43.9,17.72,SSE,157,3.6,3.6,31,0.00,,OVC250,0.75,VWS V13.01,2013-03-30 18:34:00,
2013-03-30 13:39:00,76.8,43.9,17.72,SE,137,10.1,10.1,31,0.00,,OVC040,0.75,VWS V13.01,2013-03-30 18:39:00,
2013-03-30 13:44:00,76.8,43.9,17.72,SE,137,10.1,10.1,31,0.00,,OVC040,0.75,VWS V13.01,2013-03-30 18:44:00,
2013-03-30 13:49:00,76.8,43.9,17.72,SSE,155,4.5,4.5,31,0.00,,OVC040,0.75,VWS V13.01,2013-03-30 18:49:00,
2013-03-30 13:54:00,76.8,43.9,17.72,South,181,2.7,2.7,31,0.00,,OVC040,0.75,VWS V13.01,2013-03-30 18:54:00,
2013-03-30 13:59:00,76.8,43.9,17.72,South,169,4.0,4.0,31,0.00,,OVC040,0.75,VWS V13.01,2013-03-30 18:59:00,
2013-03-30 14:04:00,76.8,43.9,17.72,South,169,4.0,4.0,31,0.00,,OVC040,0.75,VWS V13.01,2013-03-30 19:04:00,
2013-03-30 14:09:00,76.8,43.9,17.72,South,169,4.0,4.0,31,0.00,,OVC040,0.75,VWS V13.01,2013-03-30 19:09:00,
2013-03-30 14:14:00,76.8,43.9,17.72,South,169,4.0,4.0,31,0.00,,OVC040,0.75,VWS V13.01,2013-03-30 19:14:00,
2013-03-30 14:19:00,76.8,43.9,17.72,South,169,4.0,4.0,31,0.00,,OVC040,0.75,VWS V13.01,2013-03-30 19:19:00,
2013-03-30 14:24:00,76.8,43.9,17.72,SW,230,2.7,3.6,31,0.00,,OVC040,0.75,VWS V13.01,2013-03-30 19:24:00,
2013-03-30 14:29:00,76.8,43.9,17.72,SSW,205,4.0,4.0,31,0.00,,OVC040,0.75,VWS V13.01,2013-03-30 19:29:00,
2013-03-30 14:34:00,76.8,43.9,17.72,SSW,205,4.0,4.0,31,0.00,,OVC040,0.75,VWS V13.01,2013-03-30 19:34:00,
2013-03-30 14:39:00,76.8,43.9,17.72,WSW,242,0.0,0.0,31,0.00,,BKN250,0.75,VWS V13.01,2013-03-30 19:39:00,
2013-03-30 14:44:00,76.8,43.9,17.72,South,176,3.1,3.1,31,0.00,,BKN250,0.75,VWS V13.01,2013-03-30 19:44:00,
2013-03-30 14:49:00,76.8,43.9,17.72,SW,214,4.0,4.0,31,0.00,,BKN250,0.75,VWS V13.01,2013-03-30 19:49:00,
2013-03-30 14:54:00,76.8,43.9,17.72,SW,214,4.0,4.0,31,0.00,,BKN250,0.75,VWS V13.01,2013-03-30 19:54:00,
2013-03-30 14:59:00,76.8,43.9,17.72,SSW,210,4.0,4.0,31,0.00,,BKN250,0.75,VWS V13.01,2013-03-30 19:59:00,
2013-03-30 15:04:00,76.8,43.9,17.72,SSW,210,4.0,4.0,31,0.00,,BKN250,0.75,VWS V13.01,2013-03-30 20:04:00,
2013-03-30 15:09:00,76.8,43.9,17.72,SSW,200,4.0,4.0,31,0.00,,BKN250,0.75,VWS V13.01,2013-03-30 20:09:00,
2013-03-30 15:14:00,76.8,43.9,17.72,SSW,200,4.0,4.0,31,0.00,,BKN250,0.75,VWS V13.01,2013-03-30 20:14:00,
2013-03-30 15:19:00,76.8,43.9,17.72,SSW,200,4.0,4.0,31,0.00,,BKN250,0.75,VWS V13.01,2013-03-30 20:19:00,
2013-03-30 15:24:00,76.8,43.9,17.72,SSW,200,4.0,4.0,31,0.00,,BKN250,0.75,VWS V13.01,2013-03-30 20:24:00,
2013-03-30 15:29:00,76.8,43.9,17.72,SE,141,8.7,8.7,31,0.00,,BKN250,0.75,VWS V13.01,2013-03-30 20:29:00,
2013-03-30 15:34:00,76.8,43.9,17.72,SE,141,8.7,8.7,31,0.00,,BKN250,0.75,VWS V13.01,2013-03-30 20:34:00,
2013-03-30 15:39:00,76.8,43.9,17.72,SE,141,8.7,8.7,31,0.00,,OVC046,0.75,VWS V13.01,2013-03-30 20:39:00,
2013-03-30 15:44:00,76.8,43.9,17.72,SE,141,8.7,8.7,31,0.00,,OVC046,0.75,VWS V13.01,2013-03-30 20:44:00,
2013-03-30 15:49:00,76.8,43.9,17.72,SW,214,2.7,2.7,31,0.00,,OVC046,0.75,VWS V13.01,2013-03-30 20:49:00,
2013-03-30 15:54:00,76.8,43.9,17.72,South,178,3.6,3.6,31,0.00,,OVC046,0.75,VWS V13.01,2013-03-30 20:54:00,
2013-03-30 15:59:00,76.8,43.9,17.72,South,178,3.6,3.6,31,0.00,,OVC046,0.75,VWS V13.01,2013-03-30 20:59:00,
2013-03-30 16:04:00,76.8,43.9,17.72,South,178,3.6,3.6,31,0.00,,OVC046,0.75,VWS V13.01,2013-03-30 21:04:00,
2013-03-30 16:09:00,76.8,43.9,17.72,South,178,3.6,3.6,31,0.00,,OVC046,0.75,VWS V13.01,2013-03-30 21:09:00,
2013-03-30 16:14:00,78.3,42.5,17.72,SE,145,4.0,4.0,28,0.00,,OVC046,0.75,VWS V13.01,2013-03-30 21:14:00,
2013-03-30 16:19:00,78.4,41.7,17.72,South,190,3.6,3.6,27,0.00,,OVC046,0.75,VWS V13.01,2013-03-30 21:19:00,
2013-03-30 16:24:00,78.4,41.7,17.72,South,191,2.7,2.7,27,0.00,,OVC046,0.75,VWS V13.01,2013-03-30 21:24:00,
2013-03-30 16:29:00,78.3,42.5,17.72,South,191,2.2,3.1,28,0.00,,OVC046,0.75,VWS V13.01,2013-03-30 21:29:00,
2013-03-30 16:34:00,77.5,42.8,17.72,SSW,194,2.7,3.1,29,0.00,,OVC046,0.75,VWS V13.01,2013-03-30 21:34:00,
2013-03-30 16:39:00,77.2,42.5,17.72,ENE,69,2.7,4.0,29,0.00,,OVC045,0.75,VWS V13.01,2013-03-30 21:39:00,
2013-03-30 16:44:00,76.8,43.1,17.72,SSW,197,8.3,8.3,30,0.00,,OVC045,0.75,VWS V13.01,2013-03-30 21:44:00,
2013-03-30 16:49:00,76.8,43.1,17.72,SSE,149,4.0,6.3,30,0.00,,OVC045,0.75,VWS V13.01,2013-03-30 21:49:00,
2013-03-30 16:54:00,76.3,43.5,17.72,SW,233,0.0,0.0,31,0.00,,OVC045,0.75,VWS V13.01,2013-03-30 21:54:00,
2013-03-30 16:59:00,76.3,43.5,17.72,SSE,151,3.1,3.1,31,0.00,,OVC045,0.75,VWS V13.01,2013-03-30 21:59:00,
2013-03-30 17:04:00,76.3,43.5,17.72,SSE,156,5.4,5.4,31,0.00,,OVC045,0.75,VWS V13.01,2013-03-30 22:04:00,
2013-03-30 17:09:00,76.3,43.5,17.72,SE,128,4.0,4.0,31,0.00,,OVC045,0.75,VWS V13.01,2013-03-30 22:09:00,
2013-03-30 17:14:00,76.1,43.3,17.72,SSW,203,5.4,5.4,31,0.00,,OVC045,0.75,VWS V13.01,2013-03-30 22:14:00,
2013-03-30 17:19:00,76.1,43.3,17.72,ESE,102,4.5,4.5,31,0.00,,OVC045,0.75,VWS V13.01,2013-03-30 22:19:00,
2013-03-30 17:24:00,75.9,43.1,17.72,SSE,147,0.0,0.0,31,0.00,,OVC045,0.75,VWS V13.01,2013-03-30 22:24:00,
2013-03-30 17:29:00,75.9,43.1,17.72,South,177,4.9,4.9,31,0.00,,OVC045,0.75,VWS V13.01,2013-03-30 22:29:00,
2013-03-30 17:34:00,76.1,43.3,17.72,SSW,208,4.9,4.9,31,0.00,,OVC045,0.75,VWS V13.01,2013-03-30 22:34:00,
2013-03-30 17:39:00,76.1,43.3,17.72,SSW,212,3.1,3.1,31,0.00,,OVC047,0.75,VWS V13.01,2013-03-30 22:39:00,
2013-03-30 17:44:00,75.9,43.1,17.72,South,189,0.0,0.0,31,0.00,,OVC047,0.75,VWS V13.01,2013-03-30 22:44:00,
2013-03-30 17:49:00,75.9,43.1,17.72,South,171,3.1,3.1,31,0.00,,OVC047,0.75,VWS V13.01,2013-03-30 22:49:00,
2013-03-30 17:54:00,76.1,43.3,17.72,SSE,148,3.1,3.1,31,0.00,,OVC047,0.75,VWS V13.01,2013-03-30 22:54:00,
2013-03-30 17:59:00,75.9,44.0,17.72,SE,135,3.6,3.6,32,0.00,,OVC047,0.75,VWS V13.01,2013-03-30 22:59:00,
2013-03-30 18:04:00,75.7,43.8,17.72,SSW,199,5.4,5.4,32,0.00,,OVC047,0.75,VWS V13.01,2013-03-30 23:04:00,
2013-03-30 18:09:00,75.4,43.5,17.72,South,174,4.0,4.0,32,0.00,,OVC047,0.75,VWS V13.01,2013-03-30 23:09:00,
2013-03-30 18:14:00,75.2,43.3,17.72,SSE,162,2.7,2.7,32,0.00,,OVC047,0.75,VWS V13.01,2013-03-30 23:14:00,
2013-03-30 18:19:00,75.2,43.3,17.72,SE,130,3.6,3.6,32,0.00,,OVC047,0.75,VWS V13.01,2013-03-30 23:19:00,
2013-03-30 18:24:00,75.2,43.3,17.72,SE,146,3.1,3.1,32,0.00,,OVC047,0.75,VWS V13.01,2013-03-30 23:24:00,
2013-03-30 18:29:00,75.0,43.2,17.72,SE,128,4.0,4.0,32,0.00,,OVC047,0.75,VWS V13.01,2013-03-30 23:29:00,
2013-03-30 18:34:00,74.8,43.0,17.72,SSE,150,4.0,4.0,32,0.00,,OVC047,0.75,VWS V13.01,2013-03-30 23:34:00,
2013-03-30 18:39:00,74.8,43.0,17.72,SSE,155,0.0,0.0,32,0.00,,OVC047,0.75,VWS V13.01,2013-03-30 23:39:00,
2013-03-30 18:44:00,74.8,43.0,17.72,SSE,161,4.0,4.0,32,0.00,,OVC047,0.75,VWS V13.01,2013-03-30 23:44:00,
2013-03-30 18:49:00,74.8,43.0,17.72,SSE,158,5.4,5.4,32,0.00,,OVC050,0.75,VWS V13.01,2013-03-30 23:49:00,
2013-03-30 18:54:00,74.7,42.9,17.72,SSW,199,2.7,2.7,32,0.00,,OVC050,0.75,VWS V13.01,2013-03-30 23:54:00,
2013-03-30 18:59:00,74.7,42.9,17.72,South,185,3.1,3.1,32,0.00,,OVC050,0.75,VWS V13.01,2013-03-30 23:59:00,
2013-03-30 19:04:00,74.7,42.9,17.72,South,172,2.7,2.7,32,0.00,,OVC050,0.75,VWS V13.01,2013-03-31 00:04:00,
2013-03-30 19:09:00,74.7,42.9,17.72,SSW,205,3.1,4.9,32,0.00,,OVC050,0.75,VWS V13.01,2013-03-31 00:09:00,
2013-03-30 19:14:00,74.7,42.9,17.72,SE,142,2.7,3.6,32,0.00,,OVC050,0.75,VWS V13.01,2013-03-31 00:14:00,
2013-03-30 19:19:00,74.8,43.0,17.72,ESE,111,4.0,4.0,32,0.00,,OVC050,0.75,VWS V13.01,2013-03-31 00:19:00,
2013-03-30 19:24:00,74.8,43.0,17.72,South,180,3.1,3.1,32,0.00,,SCT055,0.75,VWS V13.01,2013-03-31 00:24:00,
2013-03-30 19:29:00,74.3,42.6,17.72,SSE,153,2.7,2.7,32,0.00,,SCT055,0.75,VWS V13.01,2013-03-31 00:29:00,
2013-03-30 19:34:00,74.3,42.6,17.72,SSE,152,0.0,3.6,32,0.00,,SCT055,0.75,VWS V13.01,2013-03-31 00:34:00,
2013-03-30 19:39:00,73.6,42.7,17.72,SSE,157,2.7,2.7,33,0.00,,SCT055,0.75,VWS V13.01,2013-03-31 00:39:00,
2013-03-30 19:44:00,73.2,42.4,17.72,ESE,106,5.8,5.8,33,0.00,,SCT055,0.75,VWS V13.01,2013-03-31 00:44:00,
2013-03-30 19:49:00,73.2,42.4,17.72,SE,141,0.0,0.0,33,0.00,,SCT055,0.75,VWS V13.01,2013-03-31 00:49:00,
2013-03-30 19:54:00,72.9,42.9,17.72,SE,143,2.7,2.7,34,0.00,,SCT055,0.75,VWS V13.01,2013-03-31 00:54:00,
2013-03-30 19:59:00,72.7,42.7,17.72,SSE,164,0.0,0.0,34,0.00,,SCT055,0.75,VWS V13.01,2013-03-31 00:59:00,
2013-03-30 20:04:00,72.3,42.4,17.72,SSE,150,0.0,0.0,34,0.00,,SCT055,0.75,VWS V13.01,2013-03-31 01:04:00,
2013-03-30 20:09:00,72.1,43.0,17.72,SE,145,3.1,3.1,35,0.00,,SCT055,0.75,VWS V13.01,2013-03-31 01:09:00,
2013-03-30 20:14:00,72.1,43.0,17.72,SE,125,2.7,2.7,35,0.00,,SCT055,0.75,VWS V13.01,2013-03-31 01:14:00,
2013-03-30 20:19:00,72.0,42.8,17.72,SSE,167,0.0,0.0,35,0.00,,SCT055,0.75,VWS V13.01,2013-03-31 01:19:00,
2013-03-30 20:24:00,72.0,42.8,17.72,SSE,168,0.0,0.0,35,0.00,,SCT055,0.75,VWS V13.01,2013-03-31 01:24:00,
2013-03-30 20:29:00,71.6,43.3,17.72,SSE,168,0.0,0.0,36,0.00,,SCT055,0.75,VWS V13.01,2013-03-31 01:29:00,
2013-03-30 20:34:00,71.4,43.1,17.72,ENE,62,0.0,0.0,36,0.00,,SCT055,0.75,VWS V13.01,2013-03-31 01:34:00,
2013-03-30 20:39:00,71.2,43.7,17.72,SE,126,0.0,0.0,37,0.00,,SCT055,0.75,VWS V13.01,2013-03-31 01:39:00,
2013-03-30 20:44:00,71.1,43.5,17.72,SE,133,0.0,0.0,37,0.00,,SCT055,0.75,VWS V13.01,2013-03-31 01:44:00,
2013-03-30 20:49:00,70.9,43.3,17.72,ESE,117,0.0,0.0,37,0.00,,SCT250,0.75,VWS V13.01,2013-03-31 01:49:00,
2013-03-30 20:54:00,70.7,43.9,17.72,East,101,0.0,0.0,38,0.00,,SCT250,0.75,VWS V13.01,2013-03-31 01:54:00,
2013-03-30 20:59:00,70.7,43.9,17.72,SE,136,0.0,0.0,38,0.00,,SCT250,0.75,VWS V13.01,2013-03-31 01:59:00,
2013-03-30 21:04:00,70.5,43.7,17.72,SE,136,0.0,0.0,38,0.00,,SCT250,0.75,VWS V13.01,2013-03-31 02:04:00,
2013-03-30 21:09:00,70.5,44.4,17.72,East,96,3.6,3.6,39,0.00,,SCT250,0.75,VWS V13.01,2013-03-31 02:09:00,
2013-03-30 21:14:00,70.5,44.4,17.72,SSE,162,0.0,0.0,39,0.00,,SCT250,0.75,VWS V13.01,2013-03-31 02:14:00,
2013-03-30 21:19:00,70.5,45.1,17.72,SSE,151,0.0,0.0,40,0.00,,SCT250,0.75,VWS V13.01,2013-03-31 02:19:00,
2013-03-30 21:24:00,70.3,44.9,17.72,ESE,120,0.0,3.1,40,0.00,,SCT250,0.75,VWS V13.01,2013-03-31 02:24:00,
2013-03-30 21:29:00,70.3,44.9,17.72,SE,133,0.0,0.0,40,0.00,,SCT250,0.75,VWS V13.01,2013-03-31 02:29:00,
2013-03-30 21:34:00,70.3,44.9,17.72,SE,137,0.0,0.0,40,0.00,,SCT250,0.75,VWS V13.01,2013-03-31 02:34:00,
2013-03-30 21:39:00,70.2,45.4,17.72,ESE,120,0.0,0.0,41,0.00,,SCT250,0.75,VWS V13.01,2013-03-31 02:39:00,
2013-03-30 21:44:00,70.2,45.4,17.72,SE,132,0.0,0.0,41,0.00,,SCT250,0.75,VWS V13.01,2013-03-31 02:44:00,
2013-03-30 21:49:00,70.0,45.2,17.72,SE,133,0.0,0.0,41,0.00,,SCT250,0.75,VWS V13.01,2013-03-31 02:49:00,
2013-03-30 21:54:00,69.8,45.7,17.72,SE,134,0.0,0.0,42,0.00,,SCT250,0.75,VWS V13.01,2013-03-31 02:54:00,
2013-03-30 21:59:00,69.8,45.7,17.72,East,101,0.0,0.0,42,0.00,,SCT250,0.75,VWS V13.01,2013-03-31 02:59:00,
2013-03-30 22:04:00,69.6,45.5,17.72,SE,134,0.0,0.0,42,0.00,,SCT250,0.75,VWS V13.01,2013-03-31 03:04:00,
2013-03-30 22:09:00,69.6,46.2,17.72,SE,136,0.0,0.0,43,0.00,,SCT250,0.75,VWS V13.01,2013-03-31 03:09:00,
2013-03-30 22:14:00,69.3,45.8,17.72,SE,136,0.0,0.0,43,0.00,,SCT250,0.75,VWS V13.01,2013-03-31 03:14:00,
2013-03-30 22:19:00,69.1,45.7,17.72,SE,135,0.0,0.0,43,0.00,,SCT250,0.75,VWS V13.01,2013-03-31 03:19:00,
2013-03-30 22:24:00,68.9,45.5,17.72,SE,135,0.0,0.0,43,0.00,,SCT250,0.75,VWS V13.01,2013-03-31 03:24:00,
2013-03-30 22:29:00,68.4,45.6,17.72,SE,135,0.0,0.0,44,0.00,,SCT250,0.75,VWS V13.01,2013-03-31 03:29:00,
2013-03-30 22:34:00,68.2,45.5,17.72,SE,135,0.0,0.0,44,0.00,,SCT250,0.75,VWS V13.01,2013-03-31 03:34:00,
2013-03-30 22:39:00,67.8,45.7,17.72,ESE,121,0.0,0.0,45,0.00,,SCT250,0.75,VWS V13.01,2013-03-31 03:39:00,
2013-03-30 22:44:00,67.8,46.3,17.72,ESE,117,0.0,0.0,46,0.00,,SCT250,0.75,VWS V13.01,2013-03-31 03:44:00,
2013-03-30 22:49:00,67.8,46.3,17.72,ENE,73,0.0,0.0,46,0.00,,SCT250,0.75,VWS V13.01,2013-03-31 03:49:00,
2013-03-30 22:54:00,68.2,46.6,17.72,ENE,74,0.0,0.0,46,0.00,,SCT250,0.75,VWS V13.01,2013-03-31 03:54:00,
2013-03-30 22:59:00,68.2,46.6,17.72,ESE,122,0.0,0.0,46,0.00,,SCT250,0.75,VWS V13.01,2013-03-31 03:59:00,
2013-03-30 23:00:00,68.2,46.6,17.72,ESE,122,0.0,0.0,46,0.00,,SCT250,0.75,VWS V13.01,2013-03-31 04:00:00,
2013-03-30 23:05:00,68.4,46.8,17.72,SE,124,0.0,0.0,46,0.00,,SCT250,0.75,VWS V13.01,2013-03-31 04:05:00,
2013-03-30 23:10:00,68.4,46.8,17.72,ESE,121,0.0,0.0,46,0.00,,SCT250,0.75,VWS V13.01,2013-03-31 04:10:00,
2013-03-30 23:15:00,68.2,46.6,17.72,SE,127,0.0,0.0,46,0.00,,SCT250,0.75,VWS V13.01,2013-03-31 04:15:00,
2013-03-30 23:20:00,68.2,46.6,17.72,SE,125,0.0,0.0,46,0.00,,SCT250,0.75,VWS V13.01,2013-03-31 04:20:00,
2013-03-30 23:25:00,68.2,46.6,17.72,ESE,110,0.0,0.0,46,0.00,,SCT250,0.75,VWS V13.01,2013-03-31 04:25:00,
2013-03-30 23:30:00,68.2,46.6,17.72,ESE,110,0.0,0.0,46,0.00,,SCT250,0.75,VWS V13.01,2013-03-31 04:30:00,
2013-03-30 23:35:00,68.2,46.6,17.72,ESE,105,0.0,0.0,46,0.00,,SCT250,0.75,VWS V13.01,2013-03-31 04:35:00,
2013-03-30 23:40:00,68.2,46.0,17.72,East,89,0.0,0.0,45,0.00,,BKN250,0.75,VWS V13.01,2013-03-31 04:40:00,
2013-03-30 23:45:00,68.4,46.2,17.72,SE,141,3.1,3.1,45,0.00,,BKN250,0.75,VWS V13.01,2013-03-31 04:45:00,
2013-03-30 23:50:00,68.4,46.2,17.72,ESE,115,2.2,2.2,45,0.00,,BKN250,0.75,VWS V13.01,2013-03-31 04:50:00,
2013-03-30 23:55:00,68.5,46.4,17.72,ESE,103,0.0,0.0,45,0.00,,BKN250,0.75,VWS V13.01,2013-03-31 04:55:00,